Location: Jaite
(41.2884°N, 81.5737°W)
Time: 05:24:27
(UTC+00:00)

Okean 2 Rocket - Pass Details

Date: 15 November 2025
Orbit: 610 x 635 km, 82.5° (Epoch: 04 December)

Event Time Altitude Azimuth Distance (km) Brightness Sun altitude
Rises 00:01:17 0° 181° (S) 2,891 6.6 -21.4°
Reaches altitude 10° 00:03:31 10° 180° (S) 1,985 5.7 -21.8°
Maximum altitude 00:07:54 73° 96° (E) 652 2.9 -22.6°
Enters shadow 00:07:57 73° 88° (E) 652 2.9 -22.6°
